SSEC Globe Logo

Space Science and Engineering Center

Wisconsin State Observations

ASUS43 KMKX 272021                                              2020027 2021
RWRWI
WISCONSIN REGIONAL WEATHER ROUNDUP
NATIONAL WEATHER SERVICE MILWAUKEE/SULLIVAN WI
NOTE: "FAIR" INDICATES FEW OR NO CLOUDS BELOW 12,000 FEET WITH NO
SIGNIFICANT WEATHER AND/OR OBSTRUCTIONS TO VISIBILITY.

CITY           SKY/WX    TMP DP  RH WIND       PRES   REMARKS
SUPERIOR ARPT  CLOUDY    23  17  80 NW7       30.05F WCI  14
ASHLAND        CLOUDY    26  21  81 W8        30.03S WCI  18
HAYWARD        CLOUDY    28  22  78 W5        30.00F WCI  23
SIREN          CLOUDY    27  23  87 NW7       30.04S WCI  19
CUMBERLAND     CLOUDY    28  21  74 NW3       30.01S
RICE LAKE      CLOUDY    35  28  76 NW5       30.02F WCI  30
CHETEK         CLOUDY    29  23  77 W3        30.02F
LADYSMITH      CLOUDY    31  23  73 W5        30.01S WCI  26
EAU CLAIRE     CLOUDY    31  23  72 W7        30.01F WCI  24
MENOMONIE      CLOUDY    26  21  79 W5        30.03S WCI  21
NEW RICHMOND   CLOUDY    27  22  81 W6        30.04S WCI  20
OSCEOLA        CLOUDY    27  25  91 NW7       30.07S WCI  19


CITY           SKY/WX    TMP DP  RH WIND       PRES   REMARKS
MANITOWISH WTR CLOUDY    28  23  82 NW6       29.95S WCI  21
ARBOR VITAE    CLOUDY    32  27  83 W6        29.94S WCI  26
WOODRUFF       CLOUDY    32  27  83 W6        29.94S WCI  26
RHINELANDER    CLOUDY    29  22  75 NW6       29.94F WCI  23
EAGLE RIVER    CLOUDY    28  23  81 NW7       29.94S WCI  21
LAND O LAKES   CLOUDY    28  23  79 NW9       29.95S WCI  20
PHILLIPS       CLOUDY    29  22  77 W6        29.96F WCI  23
TOMAHAWK       CLOUDY    29  23  78 NW6       29.96S WCI  23
MEDFORD        CLOUDY    28  22  77 NW6       29.96S WCI  22
MERRILL        CLOUDY    31  24  76 NW6       29.97S WCI  25


CITY           SKY/WX    TMP DP  RH WIND       PRES   REMARKS
WAUSAU         CLOUDY    30  23  75 N8        29.95F WCI  22
MOSINEE        CLOUDY    30  25  80 NW7       29.97F WCI  23
MARSHFIELD     CLOUDY    30  23  75 N9        29.96F WCI  22
STEVENS POINT  CLOUDY    30  22  73 N5        29.98S WCI  25
WAUPACA        CLOUDY    35  25  67 N6        29.98S WCI  30
WAUTOMA        CLOUDY    32  25  75 N8          N/A  WCI  25
WISC RAPIDS    CLOUDY    32  24  72 N7        29.98F WCI  26
CAMP DOUGLAS   CLOUDY    32  32 100 W8        29.99F WCI  25


CITY           SKY/WX    TMP DP  RH WIND       PRES   REMARKS
ANTIGO         CLOUDY    29  23  79 NW10      29.95S WCI  19
SHAWANO        CLOUDY    33  26  73 NW8       29.97F WCI  27
OCONTO         CLOUDY    33  25  71 NW6       29.97S WCI  27
STURGEON BAY   CLOUDY    34  27  75 NW6       29.97S WCI  29
GREEN BAY      CLOUDY    33  23  66 NW10      29.98S WCI  25
MANITOWOC      CLOUDY    32  26  78 NW7       29.97F WCI  26
APPLETON       CLOUDY    32  21  64 N7        29.96S WCI  26
CLINTONVILLE   CLOUDY    32  24  71 NW9       29.98S WCI  25
OSHKOSH        CLOUDY    32  26  78 N6        29.97S WCI  26


CITY           SKY/WX    TMP DP  RH WIND       PRES   REMARKS
LA CROSSE      CLOUDY    32  25  75 NW6       30.02F WCI  26
SPARTA         CLOUDY    30  27  86 CALM      30.02S
VIROQUA        CLOUDY    30  28  92 NW6       29.98S WCI  24
BOSCOBEL       CLOUDY    33  26  75 NW3       30.01F
PRAIRIE DU CHI CLOUDY    31  25  77 NW3       30.02S
PLATTEVILLE    CLOUDY    31  29  92 W6        30.00S WCI  25

CITY           SKY/WX    TMP DP  RH WIND       PRES   REMARKS
REEDSBURG      CLOUDY    31  29  92 W3        29.99S
BARABOO/DELLS  CLOUDY    30  28  92 W5        29.98S WCI  25
LONE ROCK      CLOUDY    32  26  78 SW5       30.00F WCI  27
MINERAL POINT  CLOUDY    32  28  86 NW5       29.98S WCI  27
MADISON        CLOUDY    32  27  81 NW5       29.99S WCI  27
MIDDLETON      CLOUDY    33  28  80 NW5       29.99S WCI  29
WATERTOWN      CLOUDY    32  31  95 N3        29.98R
MONROE         CLOUDY    32  27  82 NW5       29.97F WCI  27
JANESVILLE     CLOUDY    34  28  80 NW6       29.98F FOG     WCI  29


CITY           SKY/WX    TMP DP  RH WIND       PRES   REMARKS
MILWAUKEE      CLOUDY    35  27  72 NW7       29.96F WCI  29
WAUKESHA       CLOUDY    30  27  86 W6        29.98S WCI  24
MILWAUKEE/TIMM CLOUDY    34  27  75 NW7       29.98F WCI  28
RACINE         CLOUDY    34  28  79 NE5       29.98F WCI  30
KENOSHA        CLOUDY    36  28  73 NW5       29.97S WCI  32
FOND DU LAC    CLOUDY    33  26  75 NE6       29.98S WCI  28
SHEBOYGAN      CLOUDY    32  25  75 NW8       29.96F WCI  25
WEST BEND      CLOUDY    32  28  86 NW10      29.97S WCI  24
JUNEAU         CLOUDY    31  28  90 CALM      29.98S
LSZ147-162-272100-
LAKE SUPERIOR

STATION/POSITION TIME  TEMP    WIND        PRES    WAVE
                       AIR SEA DIR/SP/G            HT/PER
                 (UTC) (F)     (DEG/KT/KT) (MB)    (FT/S)
DEVILS ISLAND    2000   25     260/ 11/ 15 1017.5F
SAXON HARBOR     1930   28     330/  5/  7 1016.3F

LMZ867-665-643>646-272100-
LAKE MICHIGAN

STATION/POSITION TIME  TEMP    WIND        PRES    WAVE
                       AIR SEA DIR/SP/G            HT/PER
                 (UTC) (F)     (DEG/KT/KT) (MB)    (FT/S)
NORTHPORT PIER   1940   33     290/  7/  9 1014.2S
KEWAUNEE LAKESHO 1936   33     330/  5/  8 1014.2S
SHEBOYGAN LAKESH 2000   33     340/  7/  9   N/A
PORT WASHINGTON  1940   34     330/  3/  8 1016.3S
MILWAUKEE LAKESH 1750   34     330/  2/  3   N/A
KENOSHA   LAKESH 2000   33      40/  7/  8 1015.2
TC  - TEMPERATURE IN CELSIUS
VSB - VISIBILITY IN STATUTE MILES
WCI - WIND CHILL INDEX
HX  - HEAT INDEX